Retour au catalogue

Sitro-AIS-65

ActifCommunicationsSSO
NORAD 67266·PAYLOAD·🇷🇺 Russia

Lancé Dec 28, 2025 depuis Vostochny Cosmodrome

Loading…

Prochains Passages (prochaines 24 heures)

TLE

FraisSource: Space-Track

Époque: Sep 14, 2026, 15:58 UTC

1 67266U 25313U   26257.66584871  .00007198  00000-0  29233-3 0  9995
2 67266  97.3887 331.1839 0014941  52.8978 307.3623 15.24779498 39582

Suivez Sitro-AIS-65 en temps réel avec AllMySat

Download on the App Store